Location: Newark
(41.6500°N, 71.4833°W)
Time: 13:12:01
(UTC+00:00)

Courier 1B - Pass Details

Date: 20 January 2020
Orbit: 962 x 1209 km, 28.3° (Epoch: 28 February)

Event Time Altitude Azimuth Distance (km) Brightness Sun altitude
Rises 07:32:56 0° 197° (SSW) 3,938 - -50.7°
Reaches altitude 10° 07:39:13 10° 158° (SSE) 3,055 - -49.6°
Maximum altitude 07:40:07 10° 151° (SSE) 3,047 - -49.5°
Drops below altitude 10° 07:41:02 10° 144° (SE) 3,074 - -49.3°
Exits shadow 07:42:59 - 130° (SE) 3,245 10.4 -49.0°
Sets 07:47:31 0° 105° (ESE) 4,089 11.3 -48.2°
